[TLELIST] Archives

 

Mail list restored

May 8th 2007 PDT

Subscribers, There were some software issues on the server regarding the mail software, compounded by the move. This was due to running very latest releases of perl and php. There was also a complex selinux policy as well. All mail lists are restored and operating as of 10:30 UTC 8th May 2007. Sorry for any inconvenience. Thanks! ____________________________________________________________________ These 2-Line Elements (TLEs) are direct from DoD/ USSTRATCOM/ US Space Command with permission. Updates are provid ...Continue Reading

Current TLEs

May 7th 2007 PDT

HST 1 20580U 90037B 07126.23031621 .00000423 00000-0 19996-4 0 8679 2 20580 028.4659 103.7124 0003588 018.3805 341.6913 15.00232741733654 ISS (ZARYA) 1 25544U 98067A 07127.40236634 .00016001 00000-0 97186-4 0 1596 2 25544 051.6355 314.6218 0010518 154.5430 268.3872 15.77641121484332 CXO 1 25867U 99040B 07128.00000000 .00000505 00000-0 00000+0 0 673 2 25867 061.6477 090.1950 6174118 284.7298 359.3590 00.37805337 2106 ____________________________________________________________________ These 2-Line ...Continue Reading

Current TLEs

May 7th 2007 PDT

HST 1 20580U 90037B 07126.23031621 .00000423 00000-0 19996-4 0 8679 2 20580 028.4659 103.7124 0003588 018.3805 341.6913 15.00232741733654 ISS (ZARYA) 1 25544U 98067A 07126.45317759 .00017578 00000-0 10648-3 0 1540 2 25544 051.6347 319.5209 0010564 150.6366 277.7834 15.77613595484182 CXO 1 25867U 99040B 07128.00000000 .00000505 00000-0 00000+0 0 673 2 25867 061.6477 090.1950 6174118 284.7298 359.3590 00.37805337 2106 ____________________________________________________________________ These 2-Line ...Continue Reading

Current TLEs

May 5th 2007 PDT

HST 1 20580U 90037B 07124.76675164 .00000440 00000-0 21325-4 0 8668 2 20580 028.4659 113.2560 0003493 002.4898 357.5693 15.00232083733431 ISS (ZARYA) 1 25544U 98067A 07125.43941821 .00017080 00000-0 10375-3 0 1488 2 25544 051.6348 324.7559 0010595 146.5943 280.4404 15.77575461484024 CXO 1 25867U 99040B 07125.37500000 .00000481 00000-0 00000+0 0 667 2 25867 061.6357 090.2438 6168937 284.7779 001.9774 00.37804887 2092 ____________________________________________________________________ These 2-Line ...Continue Reading

Current TLEs

May 4th 2007 PDT

PUBLIC "-//W3C//DTD XHTML 1.0 Transitional//EN" "http://www.w3.org/TR/xhtml1/DTD/xhtml1-transitional.dtd"> ____________________________________________________________________ These 2-Line Elements (TLEs) are direct from DoD/ USSTRATCOM/ US Space Command with permission. Updates are provided automatically daily. By receiving this email, you agree not to transfer any data or information received under this agreement, including the analysis of tracking data, to any other entity without the ...Continue Reading

Current TLEs

May 3rd 2007 PDT

HST 1 20580U 90037B 07121.44046748 +.00000437 +00000-0 +21155-4 0 08724 2 20580 028.4660 134.9444 0003401 325.7838 034.2534 15.00230152732930 ISS (ZARYA) 1 25544U 98067A 07123.47899606 .00020471 00000-0 12384-3 0 1360 2 25544 051.6347 334.8783 0010777 139.4357 306.5476 15.77511664483715 CXO 1 25867U 99040B 07122.70833333 .00000454 00000-0 00000+0 0 658 2 25867 061.6212 090.2862 6163873 284.8394 358.9164 00.37805663 2081 ____________________________________________________________________ These 2-Line ...Continue Reading

Current TLEs

May 2nd 2007 PDT

HST 1 20580U 90037B 07120.77521075 +.00000379 +00000-0 +16612-4 0 08851 2 20580 028.4662 139.2832 0003417 318.0099 042.0230 15.00229426732833 ISS (ZARYA) 1 25544U 98067A 07122.46301074 .00023974 00000-0 14450-3 0 1306 2 25544 051.6352 340.1223 0010908 135.9217 296.4282 15.77477011483553 CXO 1 25867U 99040B 07122.70833333 .00000454 00000-0 00000+0 0 658 2 25867 061.6212 090.2862 6163873 284.8394 358.9164 00.37805663 2081 ____________________________________________________________________ These 2-Line ...Continue Reading

Current TLEs

May 1st 2007 PDT

HST 1 20580U 90037B 07121.24089074 .00000409 00000-0 18923-4 0 8639 2 20580 028.4661 136.2472 0003431 323.1311 036.9043 15.00229830732900 ISS (ZARYA) 1 25544U 98067A 07121.44740928 .00027253 00000-0 16396-3 0 1235 2 25544 051.6353 345.3645 0011011 132.0696 288.9612 15.77433534483391 CXO 1 25867U 99040B 07120.04166667 .00000418 00000-0 00000+0 0 641 2 25867 061.6057 090.3226 6160064 284.9080 355.8163 00.37806072 2074 ____________________________________________________________________ These 2-Line ...Continue Reading

Current TLEs

April 30th 2007 PDT

HST 1 20580U 90037B 07118.91249005 +.00000339 +00000-0 +13426-4 0 08647 2 20580 028.4665 151.4304 0003346 296.3530 063.6714 15.00228434732558 ISS (ZARYA) 1 25544U 98067A 07120.25145955 .00024678 00000-0 14940-3 0 1176 2 25544 051.6357 351.5374 0010773 127.3706 337.6846 15.77361212483200 CXO 1 25867U 99040B 07120.04166667 .00000418 00000-0 00000+0 0 641 2 25867 061.6057 090.3226 6160064 284.9080 355.8163 00.37806072 2074 ____________________________________________________________________ These 2-Line ...Continue Reading

Current TLEs

April 29th 2007 PDT

HST 1 20580U 90037B 07118.51333536 .00000357 00000-0 14893-4 0 8612 2 20580 028.4665 154.0339 0003340 291.1649 068.8584 15.00228429732492 ISS (ZARYA) 1 25544U 98067A 07119.48463729 .00019080 00000-0 11671-3 0 1125 2 25544 051.6365 355.4959 0010683 125.1171 302.6451 15.77319386483088 CXO 1 25867U 99040B 07120.04166667 .00000418 00000-0 00000+0 0 641 2 25867 061.6057 090.3226 6160064 284.9080 355.8163 00.37806072 2074 ____________________________________________________________________ These 2-Line ...Continue Reading
  • This mailing list is a public mailing list - anyone may join or leave, at any time.
  • This mailing list is announce-only.

International Space Station (ISS) / Hubble Space Telescope (HST) / Chandra X-Ray Observatory Orbital Data via EMAIL

Privacy Policy:

Private list